Weather History for Athens, TX

Change the Weather History Date:

Tuesday, April 2, 2013

  Actual Average (KTYR) Record (KTYR)
Temperature  
Mean Temperature 62 °F 61 °F  
Max Temperature 73 °F 71 °F 90 °F (1943)
Min Temperature 50 °F 51 °F 29 °F (1962)
Degree Days  
Heating Degree Days 3 6  
Month to date heating degree days 12  
Since 1 July heating degree days 2177  
Cooling Degree Days 0 1  
Month to date cooling degree days 2  
Year to date cooling degree days 35  
Growing Degree Days 12 (Base 50)    
Moisture  
Dew Point 56 °F    
Average Humidity 78    
Maximum Humidity 100    
Minimum Humidity 57    
Precipitation  
Precipitation 0.46 in 0.10 in 3.52 in (1979)
Month to date precipitation 0.21  
Year to date precipitation 11.20  
Snow  
Snow 0.00 in - - ()
Month to date snowfall  
Since 1 July snowfall  
Snow Depth -    
Sea Level Pressure  
Sea Level Pressure 29.98 in    
Wind  
Wind Speed 4 mph (SE)    
Max Wind Speed 15 mph    
Max Gust Speed 23 mph    
Visibility 10 miles    
Events Rain , Thunderstorm    
T = Trace of Precipitation, MM = Missing Value Source: NWS Daily Summary

Daily Weather History Graph

Daily Weather History Graph

Search for Another Location

Airport:

Trip Planner

Search our weather history database for the weather conditions in past years. The results will help you decide how hot, cold, wet, or windy it might be!

Date:

Astronomy

Apr. 02, 2013 Rise Set
Actual Time 7:09 AM CDT 7:44 PM CDT
Civil Twilight 6:45 AM CDT 8:08 PM CDT
Nautical Twilight 6:16 AM CDT 8:37 PM CDT
Astronomical Twilight 5:46 AM CDT 9:07 PM CDT
Moon 1:35 AM CDT (4/2) 12:15 PM CDT (4/2)
Length of Visible Light 13h 23m
Length of Day
12h 34m
Waning Gibbous, 55% of the Moon is Illuminated
Apr 2
Waning Gibbous
Apr 2
Last Quarter
Apr 10
New
Apr 18
First Quarter
Apr 25
Full

Hourly Weather History & Observations

Time (CDT) Temp. Dew Point Humidity Pressure Visibility Wind Dir Wind Speed Gust Speed Precip Events Conditions
12:15 AM 62.6 °F 53.6 °F 72% 30.00 in 10.0 mi Calm Calm - N/A   Scattered Clouds
12:35 AM 60.8 °F 51.8 °F 72% 29.99 in 10.0 mi SE 3.5 mph - N/A   Clear
12:55 AM 62.6 °F 51.8 °F 68% 30.00 in 10.0 mi Calm Calm - N/A   Clear
1:15 AM 62.6 °F 51.8 °F 68% 30.00 in 10.0 mi Calm Calm - N/A   Clear
1:35 AM 62.6 °F 51.8 °F 68% 30.00 in 10.0 mi Calm Calm - N/A   Clear
1:55 AM 62.6 °F 51.8 °F 68% 29.99 in 10.0 mi SE 3.5 mph - N/A   Clear
2:15 AM 62.6 °F 51.8 °F 68% 29.99 in 10.0 mi SE 3.5 mph - N/A   Clear
2:35 AM 62.6 °F 51.8 °F 68% 29.99 in 10.0 mi SE 4.6 mph - N/A   Scattered Clouds
2:55 AM 62.6 °F 51.8 °F 68% 29.99 in 10.0 mi SSE 6.9 mph - N/A   Scattered Clouds
3:15 AM 62.6 °F 53.6 °F 72% 30.01 in 10.0 mi SE 3.5 mph - N/A   Clear
3:35 AM 62.6 °F 53.6 °F 72% 30.01 in 10.0 mi Calm Calm - N/A   Mostly Cloudy
3:55 AM 60.8 °F 53.6 °F 77% 30.01 in 10.0 mi Calm Calm - N/A   Overcast
4:15 AM 60.8 °F 53.6 °F 77% 30.00 in 10.0 mi SE 4.6 mph - N/A   Mostly Cloudy
4:35 AM 60.8 °F 53.6 °F 77% 30.00 in 10.0 mi Calm Calm - N/A   Mostly Cloudy
4:55 AM 60.8 °F 53.6 °F 77% 29.99 in 10.0 mi SE 4.6 mph - N/A   Scattered Clouds
5:15 AM 60.8 °F 55.4 °F 82% 29.99 in 10.0 mi SE 3.5 mph - N/A   Clear
5:35 AM 59.0 °F 55.4 °F 88% 29.99 in 10.0 mi South 5.8 mph - N/A   Clear
5:55 AM 60.8 °F 55.4 °F 82% 29.99 in 10.0 mi SE 3.5 mph - N/A   Clear
6:15 AM 59.0 °F 55.4 °F 88% 30.00 in 10.0 mi ESE 3.5 mph - N/A   Clear
6:35 AM 59.0 °F 55.4 °F 88% 30.01 in 10.0 mi Calm Calm - N/A   Clear
6:55 AM 59.0 °F 55.4 °F 88% 30.00 in 10.0 mi ESE 5.8 mph - N/A   Mostly Cloudy
7:15 AM 59.0 °F 57.2 °F 94% 30.00 in 10.0 mi East 5.8 mph - N/A   Scattered Clouds
7:35 AM 60.8 °F 57.2 °F 88% 30.01 in 10.0 mi East 4.6 mph - N/A   Clear
7:55 AM 60.8 °F 57.2 °F 88% 30.01 in 10.0 mi East 4.6 mph - N/A   Scattered Clouds
8:15 AM 59.0 °F 57.2 °F 94% 30.00 in 10.0 mi ENE 3.5 mph - N/A   Clear
8:35 AM 60.8 °F 57.2 °F 88% 30.00 in 10.0 mi East 4.6 mph - N/A   Clear
8:55 AM 62.6 °F 59.0 °F 88% 30.02 in 10.0 mi SE 5.8 mph - N/A   Clear
9:35 AM 66.2 °F 59.0 °F 78% 30.04 in 10.0 mi SSE 5.8 mph - N/A   Scattered Clouds
9:55 AM 68.0 °F 59.0 °F 73% 30.04 in 10.0 mi SSE 6.9 mph - N/A   Scattered Clouds
10:15 AM 68.0 °F 59.0 °F 73% 30.03 in 10.0 mi SSE 10.4 mph 16.1 mph N/A   Scattered Clouds
10:35 AM 69.8 °F 59.0 °F 68% 30.02 in 10.0 mi SSE 10.4 mph - N/A   Scattered Clouds
10:55 AM 69.8 °F 59.0 °F 68% 30.02 in 10.0 mi SSE 9.2 mph - N/A   Scattered Clouds
11:15 AM 71.6 °F 59.0 °F 64% 30.01 in 10.0 mi SE 12.7 mph 17.3 mph N/A   Scattered Clouds
11:35 AM 71.6 °F 59.0 °F 64% 30.01 in 10.0 mi SSE 10.4 mph 16.1 mph N/A   Scattered Clouds
11:55 AM 71.6 °F 59.0 °F 64% 30.00 in 10.0 mi SE 10.4 mph 18.4 mph N/A   Scattered Clouds
12:15 PM 71.6 °F 59.0 °F 64% 30.00 in 10.0 mi SSE 13.8 mph 18.4 mph N/A   Mostly Cloudy
12:35 PM 71.6 °F 57.2 °F 60% 30.01 in 10.0 mi South 5.8 mph 16.1 mph N/A   Overcast
12:55 PM 71.6 °F 57.2 °F 60% 30.00 in 10.0 mi South 9.2 mph - N/A   Overcast
1:15 PM 73.4 °F 57.2 °F 57% 30.00 in 10.0 mi South 15.0 mph 18.4 mph N/A   Overcast
1:35 PM 73.4 °F 57.2 °F 57% 29.99 in 10.0 mi SSE 9.2 mph - N/A   Scattered Clouds
1:55 PM 73.4 °F 57.2 °F 57% 29.99 in 10.0 mi South 10.4 mph - N/A   Mostly Cloudy
2:15 PM 73.4 °F 59.0 °F 61% 29.98 in 10.0 mi SSE 8.1 mph - N/A   Mostly Cloudy
2:35 PM 73.4 °F 59.0 °F 61% 29.97 in 10.0 mi South 6.9 mph - N/A   Mostly Cloudy
2:55 PM 73.4 °F 59.0 °F 61% 29.96 in 10.0 mi SSE 6.9 mph - N/A Thunderstorm Overcast
3:15 PM 71.6 °F 59.0 °F 64% 29.96 in 10.0 mi South 5.8 mph - N/A Thunderstorm Overcast
3:35 PM 71.6 °F 59.0 °F 64% 29.94 in 10.0 mi South 3.5 mph - N/A   Overcast
3:55 PM 71.6 °F 59.0 °F 64% 29.94 in 10.0 mi SSE 3.5 mph - N/A   Overcast
4:15 PM 71.6 °F 59.0 °F 64% 29.93 in 10.0 mi South 3.5 mph - N/A Thunderstorm Overcast
4:35 PM 68.0 °F 60.8 °F 78% 29.94 in 10.0 mi West 4.6 mph - N/A Rain Light Rain
4:55 PM 66.2 °F 62.6 °F 88% 29.94 in 10.0 mi NW 4.6 mph - N/A Rain , Thunderstorm Light Thunderstorms and Rain
5:15 PM 62.6 °F 59.0 °F 88% 29.94 in 5.0 mi NW 13.8 mph 23.0 mph 0.04 in Rain , Thunderstorm Rain
5:35 PM 60.8 °F 59.0 °F 94% 29.94 in 1.2 mi NW 6.9 mph - 0.35 in Rain Heavy Rain
5:55 PM 60.8 °F 59.0 °F 94% 29.93 in 10.0 mi North 5.8 mph - 0.45 in Rain Light Rain
6:15 PM 60.8 °F 59.0 °F 94% 29.92 in 10.0 mi Calm Calm - N/A   Overcast
6:35 PM 60.8 °F 59.0 °F 94% 29.91 in 10.0 mi SE 6.9 mph - N/A   Mostly Cloudy
6:55 PM 60.8 °F 59.0 °F 94% 29.92 in 10.0 mi Calm Calm - N/A   Light Drizzle
7:15 PM 60.8 °F 59.0 °F 94% 29.93 in 10.0 mi Calm Calm - N/A   Mostly Cloudy
7:35 PM 60.8 °F 59.0 °F 94% 29.92 in 10.0 mi Calm Calm - N/A   Overcast
7:55 PM 60.8 °F 57.2 °F 88% 29.91 in 10.0 mi Calm Calm - N/A   Mostly Cloudy
8:15 PM 60.8 °F 57.2 °F 88% 29.92 in 10.0 mi Calm Calm - N/A   Scattered Clouds
8:35 PM 60.8 °F 57.2 °F 88% 29.93 in 10.0 mi NNE 3.5 mph - N/A   Mostly Cloudy
8:55 PM 60.8 °F 59.0 °F 94% 29.93 in 10.0 mi NNE 5.8 mph - N/A   Scattered Clouds
9:15 PM 60.8 °F 59.0 °F 94% 29.94 in 10.0 mi NNE 5.8 mph - N/A   Mostly Cloudy
9:35 PM 60.8 °F 60.8 °F 100% 29.95 in 10.0 mi NE 8.1 mph - N/A   Overcast
9:55 PM 60.8 °F 59.0 °F 94% 29.96 in 10.0 mi NE 8.1 mph - 0.01 in   Overcast
10:15 PM 60.8 °F 59.0 °F 94% 29.97 in 10.0 mi ENE 13.8 mph 20.7 mph N/A   Overcast
10:35 PM 60.8 °F 57.2 °F 88% 29.97 in 10.0 mi ENE 9.2 mph 20.7 mph N/A   Overcast
10:55 PM 55.4 °F 51.8 °F 88% 29.98 in 10.0 mi NNE 11.5 mph 23.0 mph N/A   Overcast
11:15 PM 51.8 °F 48.2 °F 88% 29.99 in 10.0 mi NE 15.0 mph 21.9 mph N/A   Overcast
11:35 PM 51.8 °F 46.4 °F 82% 29.99 in 10.0 mi NNE 13.8 mph 21.9 mph N/A   Overcast
11:55 PM 50.0 °F 44.6 °F 82% 29.99 in 10.0 mi NE 9.2 mph 20.7 mph N/A   Overcast